Voltar ao catálogo

THORAD AGENA D DEB

AtivoLEO
NORAD 20360·DEBRIS·🇺🇸 United States

Lançado Apr 8, 1970 de Vandenberg Space Force Base

Loading…

Próximas Passagens (próximas 24 horas)

TLE

AtualizadoSource: Space-Track

Época: Sep 13, 2026, 10:02 UTC

1 20360U 70025QF  26256.41805985  .00006119  00000-0  29470-2 0  9997
2 20360 100.4150 229.4858 0029364 356.5852 156.8076 14.18951474844991

Acompanhe THORAD AGENA D DEB em tempo real com AllMySat

Download on the App Store